sat.trackr.live / text

‹ back to catalog

STARLINK-34433

NORAD 64448 · 2025-130L

PAYLOAD ACTIVE UNKNOWN

§ Identity

Operator
Country
US
Launch date
2025-06-18
Launch site
AFETR
Launch vehicle
Mass (kg)
RCS (m²)

Purposes: comms

External: N2YO · Heavens-Above · Gunter

§ Orbital elements

Epoch: 2026-09-20T19:31:54.368544Z

Period
93.85 min
Inclination
53.1560°
Eccentricity
0.0000981
Mean motion
15.34395368 rev/d
Perigee alt
462.0 km
Apogee alt
463.4 km
Semi-major
6,840.9 km
B*
4.6894e-4
RAAN
260.3518°
Arg perigee
86.3522°
Mean anomaly
273.7593°
Rev number
7,060

§ Raw data

STARLINK-344331 64448U 25130L   26263.81382371  .00015498  00000+0  46894-3 0  99992 64448  53.1560 260.3518 0000981  86.3522 273.7593 15.34395368 70603

JSON: /api/v1/satellites/64448 · /tle

For live sub-satellite position, see the globe view (requires WebGL).

§ Visibility from observer

Set your observer location to see the next 7 days of passes ≥ 10°. The values pass through the URL so the page stays shareable.

No JS? Fill the form by hand. The geolocation button needs JavaScript.